Regional Weather Roundup
Issued by NWS Wakefield, VA

Home | Current Version | Previous Version | Graphics & Text | Print | Product List | Glossary On
Versions: 1 2 3 4 5 6 7 8 9 10 11 12 13 14 15 16 17 18 19 20 21 22 23 24 25 26 27 28 29 30 31 32 33 34 35 36 37 38 39 40 41 42 43 44 45 46 47 48 49 50
000
ASUS41 KAKQ 281715
RWRAKQ

REGIONAL WEATHER ROUNDUP
NATIONAL WEATHER SERVICE WAKEFIELD VA
100 PM EDT THU MAY 28 2015

Note: "fair" indicates few or no clouds below 12,000 feet with no
significant weather and/or obstructions to visibility. * = Denotes
station may not report precipitation (e.g., rain,snow,etc.),
thunder or fog.

VAZ042-051-052>054-056-281800-
NORTHERN VIRGINIA

CITY           SKY/WX    TMP DP  RH WIND       PRES   REMARKS
WASH NATIONAL  CLOUDY    90  62  39 N7        30.18F
DULLES         PTSUNNY   85  64  49 W3        30.19F
FORT BELVOIR   MOSUNNY   86  67  53 VRB2      30.18F
QUANTICO       PTSUNNY   79  69  71 S7        30.20F
FREDERICKSBRG* PTSUNNY   87  65  49 E6        30.18F
STAFFORD*      PTSUNNY   86  64  48 CALM      30.23F
WARRENTON      MOSUNNY   87  67  51 NE3       30.19F
CULPEPER*      MOSUNNY   84  63  49 CALM      30.20S
MANASSAS*      SUNNY     88  64  45 CALM      30.19F
LEESBURG*      FAIR      86  64  48 N3        30.20F
WINCHESTER     MOSUNNY   88  54  31 SW6       30.21F
FRONT ROYAL*   FAIR      82  63  51 CALM      30.20F
LURAY*         FAIR      88  61  40 CALM      30.21F
$$

VAZ048-049-060>072-079>083-281800-
CENTRAL AND SOUTH CENTRAL VIRGINIA

CITY           SKY/WX    TMP DP  RH WIND       PRES   REMARKS
RICHMOND       CLOUDY    86  68  54 W3        30.20F
CHESTERFIELD*  NOT AVBL
PETERSBURG*    PTSUNNY   83  74  73 SW7       30.21S
HANOVER        PTSUNNY   83  66  56 CALM      30.21F
TAPPAHANNOCK*  PTSUNNY   83  64  52 CALM      30.20S
QUINTON*       PTSUNNY   82  71  69 CALM      30.20F
CHARLOTTSVILLE PTSUNNY   86  62  44 E5        30.20F
GORDONSVILLE*  FAIR      83  67  57 NE3       30.20S
ORANGE*        MOSUNNY   86  64  48 CALM      30.22S
LOUISA*        PTSUNNY   84  66  54 E7        30.20S HAZE
BUMPASS*       FAIR      84  66  53 E3        30.20F
FARMVILLE*     MOSUNNY   88  65  47 CALM      30.19S
CREWE*         FAIR      83  65  54 CALM      30.20F
FORT PICKETT*  PTSUNNY   85  71  63 SW5       30.21S
CHASE CITY*    PTSUNNY   85  72  66 S6        30.21F
CLARKSVILLE*   PTSUNNY   82  68  61 S5        30.20F
SOUTH HILL*    MOSUNNY   81  70  68 S5        30.27F
LAWRENCEVILLE* FAIR      82  72  69 S6        30.21F
EMPORIA*       PTSUNNY   79  70  73 SE7       30.23F
$$

VAZ088>098-281800-
SOUTHEAST VIRGINIA

CITY           SKY/WX    TMP DP  RH WIND       PRES   REMARKS
NORFOLK        CLOUDY    84  66  54 S10       30.21F
VIRGINIA BEACH CLOUDY    85  69  58 VRB6      30.20F
NORFOLK NAVAL  PTSUNNY   87  68  52 SW8G15    30.22F
WEST POINT*    PTSUNNY   84  68  58 S7        30.22F
SALUDA*        FAIR      80  71  74 SW7       30.20F
NEWPORT NEWS   PTSUNNY   87  71  58 SW8       30.21F
LANGLEY AFB    PTSUNNY   83  71  66 S7        30.20F
FORT EUSTIS    PTSUNNY   81  71  71 VRB5      30.19F
WILLIAMSBURG*  PTSUNNY   84  73  70 S6        30.22F
HR EXEC AP*    PTSUNNY   82  70  65 SW7       30.23F
FRANKLIN*      PTSUNNY   81  69  67 SW8       30.22F
WAKEFIELD      PTSUNNY   81  71  71 VRB6      30.21F
$$

VAZ020-022-025-037-045-281800-
WEST CENTRAL AND SOUTHWEST VIRGINIA

CITY           SKY/WX    TMP DP  RH WIND       PRES   REMARKS
STAUNTON*      MOSUNNY   85  59  40 SE3       30.25S
WAYNESBORO*    FAIR      80  63  55 E7        30.25S
HOT SPRINGS VA MOSUNNY   72  54  51 E3        30.35F
LYNCHBURG      MOSUNNY   84  60  44 NE6       30.22F
DANVILLE       MOSUNNY   86  66  51 VRB3      30.21F
SOUTH BOSTON*  PTSUNNY   86  67  53 MISG      30.21S
MARTINSVILLE   SUNNY     88  62  42 E3        30.24F
ROANOKE        MOSUNNY   86  61  42 E8        30.24F
BLACKSBURG     CLOUDY    79  60  52 E3        30.31F
DUBLIN*        MOSUNNY   80  61  52 CALM      30.29F
MARION*        MOSUNNY   79  61  52 E5        30.32F
HILLSVILLE*    NOT AVBL
RICHLANDS*     CLOUDY    75  63  64 N5        30.31F
WISE*          RAIN      72  59  64 S8        30.33R
ABINGDON*      MOSUNNY   81  62  52 CALM      30.28S
$$

MDZ021>025-VAZ099-100-281800-
SOUTHERN MARYLAND AND THE DELMARVA PENINSULA

CITY           SKY/WX    TMP DP  RH WIND       PRES   REMARKS
PATUXENT RIVER PTSUNNY   81  71  71 SE9       30.19S
BAY BRIDGE APT   N/A    N/A N/A N/A CALM      30.18F
LEONARDTOWN    MOSUNNY   81  68  65 CALM      30.20F
DOVER          MOSUNNY   85  72  65 SW9       30.16S
GEORGETOWN     PTSUNNY   82  69  64 SW10      30.20S
EASTON         MOSUNNY   84  72  65 W5        30.22F
CAMBRIDGE      MOSUNNY   81  68  65 SE6       30.19S
SALISBURY      PTSUNNY   80  69  69 SW8       30.20S
OCEAN CITY     PTSUNNY   70  63  78 S9        30.21S
WALLOPS ISLAND PTSUNNY   73  68  84 S14       30.22F
ACCOMACK*      CLOUDY    79  70  73 S7        30.21F
$$

NCZ012>017-030>032-281800-
NORTH CENTRAL AND EASTERN NORTH CAROLINA

CITY           SKY/WX    TMP DP  RH WIND       PRES   REMARKS
ROANOKE RAPIDS FAIR      79  70  73 SW6       30.23F
RALEIGH        PTSUNNY   83  70  64 VRB6      30.23F
ELIZABETH CITY MOSUNNY   81  68  64 S8        30.23F
AHOSKIE*       PTSUNNY   79  68  69 S7        30.22F
EDENTON*         N/A     82  68  63 SW6       30.23F
CURRITUCK*     PTSUNNY   81  65  59 SW6       30.24S
KILL DEVIL HLS MOSUNNY   80  64  57 S9G17     30.23F
MANTEO         MOSUNNY   78  64  63 S15       30.25F
CAPE HATTERAS  PTSUNNY   79  60  52 S7        30.27F
TARBORO*       FAIR      83  69  62 SW6       30.23F
GOLDSBORO      PTSUNNY   83  68  60 CALM      30.20F
WASHINGTON     PTSUNNY   80  67  63 CALM      30.23F
GREENVILLE     MOSUNNY   82  68  61 SW3       30.24S
NEW BERN       SUNNY     83  64  52 SE8       30.24F
WILMINGTON     SUNNY     80  63  55 SE8       30.24F
$$

VAZ048-281800-
ELSEWHERE

CITY           SKY/WX    TMP DP  RH WIND       PRES   REMARKS
HARRISBURG PA  MOSUNNY   83  65  54 W9        30.17F
BALTIMORE      PTSUNNY   89  64  43 N6        30.17F
ANNAPOLIS      MOSUNNY   77  70  79 SE9       30.18S
ANDREWS AFB    MOSUNNY   86  67  52 VRB2      30.18F
PHILADELPHIA   PTSUNNY   85  68  56 SW6       30.17S
HENDERSON NC   PTSUNNY   78  67  67 SE7       30.23F
GREENSBORO     PTSUNNY   84  65  52 S9        30.22S
ROCKY MOUNT    PTSUNNY   80  70  71 VRB3      30.23F
$$

VAZ100-281800-
MARINE

STATION/POSITION TIME  TEMP    WIND        PRES    WAVE   SWELL
                       AIR SEA DIR/SP/G            HT/PER HT/PER
                 (UTC) (F)     (DEG/KT/KT) (MB)    (FT/S) (FT/S)
BRANDYWINE LGT   1600   71 69  200/  3/  4 1022.7S
CAPE MAY NJ      1600   75 70  160/  5/  6 1022.2F
LEWES DE         1600   80 63  260/  7/ 10 1022.1F
15NM E FENWICK I 1650   65 62              1022.8F   3/ 5
OCEAN-CITY-INLET 1600   63 69  200/ 10/ 13 1022.8F
WACHAPREAGUE VA  1600   76 75  200/  9/ 12 1023.3R
THOMAS POINT MD  1700   73 71  170/ 11/ 12 1022.5F
GOOSES REEF MD   1700   73 70  170/  8/ 10 1023.2F   1/ 2
COVE POINT MD    1600   71     160/ 11/ 12 1023.2S
SOLOMONS ISLAND  1600      70                N/A
BISHOPS HEAD MD  1600   75 74  200/  7/  9 1022.6S
PINEY POINT MD   1600          130/  3/  4   N/A
CAMBRIDGE MD     1600   79 72  200/  3/  6 1022.3F
LEWISETTA VA     1600   79 71              1022.2F
RAPPAHANNOCK LGT 1600          180/ 10/ 11 1023.8R
STINGRAY PT      1700   78 75  170/  2/  4 1023.4S   1/ 3
YORK RVR RNG VA  1600   76     280/  8/  9 1022.6R
YORKTOWN VA      1600   77 73  250/  5/  9 1022.9R
JAMESTOWN VA     1700   78 77   CALM  /  2 1022.0F
DOMINION TERM VA 1600   77     220/  6/  7 1023.4S
KIPTOPEKE VA     1600      76  300/  1/  2   N/A
CHES BAY BRIDGE  1600   77 72  220/  9/ 10 1022.8R
CAPE HENRY VA    1600   79     210/  7/  9 1022.0S
CHESAPEAKE LGHT  1600   68     180/ 23/ 23 1023.6F
WILLOUBY STN VA  1600   76     260/  9/ 10 1024.0F
CAPE HENRY BUOY  1628      61                N/A     3/ 8
1ST LANDING BUOY 1700      72              1022.8F
CAPE CHARLES BUO 1626      70                N/A     3/ 7   2/ 7
OFFSHORE WE BUOY 1611      65                N/A     3/ 8   2/ 8
64NM E OF VA BCH 1650   68 65  160/ 10/ 12 1024.0F   3/ 8   2/ 8
DUCK PIER NC     1600   70 54  140/ 13/ 14 1023.1F
44100 DUCK FRF   1624      66                N/A     2/ 8
44056 DUCK FRF   1611      61                N/A     2/ 8
OREGON INLET NC  1600   75 76  180/ 10/ 12 1024.9F
HATTERAS NC      1600   77 74  160/  6/  8 1024.6F
DIAMOND SHLS NC  1650   75 78  160/  6/  6 1025.1F   3/ 8   3/ 8
CAPE LOOKOUT NC  1700   74     120/  9/ 10 1024.2F
$$


USA.gov is the U.S. government's official web portal to all federal, state and local government web resources and services.